Change the Weather History Date:

Monday, July 15, 2013

  Actual Average (KSYR) Record (KSYR)
Temperature  
Mean Temperature 78 °F 72 °F  
Max Temperature 87 °F 82 °F 94 °F (1934)
Min Temperature 68 °F 61 °F 47 °F (1950)
Degree Days  
Heating Degree Days 0 0  
Month to date heating degree days 2  
Since 1 June heating degree days 63  
Since 1 July heating degree days 2  
Cooling Degree Days 12 7  
Month to date cooling degree days 97  
Year to date cooling degree days 240  
Since 1 June cooling degree days 210  
Growing Degree Days 28 (Base 50)    
Moisture  
Dew Point 67 °F    
Average Humidity 75    
Maximum Humidity 93    
Minimum Humidity 51    
Precipitation  
Precipitation 0.00 in 0.12 in 2.01 in (1955)
Month to date precipitation 1.82  
Year to date precipitation 19.06  
Snow  
Snow 0.00 in 0.00 in 0.00 in (2002)
Month to date snowfall 0.0  
Since 1 June snowfall 0.0  
Since 1 July snowfall 0.0  
Snow Depth -    
Sea Level Pressure  
Sea Level Pressure 30.25 in    
Wind  
Wind Speed 2 mph (WNW)    
Max Wind Speed 10 mph    
Max Gust Speed -    
Visibility 9 miles    
Events      
T = Trace of Precipitation, MM = Missing Value Source: NWS Daily Summary

Daily Weather History Graph

Daily Weather History Graph

Search for Another Location

Airport or City:

Trip Planner

Search our weather history database for the weather conditions in past years. The results will help you decide how hot, cold, wet, or windy it might be!

Date:

Astronomy

Jul. 15, 2013 Rise Set
Actual Time 5:39 AM EDT 8:43 PM EDT
Civil Twilight 5:04 AM EDT 9:17 PM EDT
Nautical Twilight 4:20 AM EDT 10:01 PM EDT
Astronomical Twilight 3:27 AM EDT 10:54 PM EDT
Moon 1:10 PM EDT (7/15) No Moon Set
Length of Visible Light 16h 13m
Length of Day
15h 04m
Waxing Crescent, 45% of the Moon is Illuminated
Jul 15
Waxing Crescent
Jul 15
First Quarter
Jul 22
Full
Jul 29
Last Quarter
Aug 6
New

Hourly Weather History & Observations

Time (EDT) Temp. Heat Index Dew Point Humidity Pressure Visibility Wind Dir Wind Speed Gust Speed Precip Events Conditions
12:54 AM 71.1 °F - 69.1 °F 93% 30.23 in 10.0 mi Calm Calm - N/A   Mostly Cloudy
1:54 AM 71.1 °F - 66.9 °F 87% 30.23 in 10.0 mi Calm Calm - N/A   Partly Cloudy
2:54 AM 70.0 °F - 66.9 °F 90% 30.24 in 6.0 mi Calm Calm - N/A   Scattered Clouds
3:54 AM 70.0 °F - 68.0 °F 93% 30.24 in 7.0 mi Calm Calm - N/A   Mostly Cloudy
4:54 AM 69.1 °F - 66.9 °F 93% 30.25 in 8.0 mi Calm Calm - N/A   Mostly Cloudy
5:54 AM 69.1 °F - 66.9 °F 93% 30.26 in 5.0 mi Calm Calm - N/A   Scattered Clouds
6:17 AM 69.8 °F - 66.2 °F 88% 30.27 in 2.5 mi Calm Calm - N/A   Scattered Clouds
6:25 AM 69.8 °F - 66.2 °F 88% 30.27 in 4.0 mi Calm Calm - N/A   Mostly Cloudy
6:54 AM 71.1 °F - 69.1 °F 93% 30.27 in 6.0 mi Calm Calm - N/A   Clear
7:54 AM 77.0 °F - 70.0 °F 79% 30.28 in 10.0 mi WNW 3.5 mph - N/A   Clear
8:54 AM 80.1 °F 83.6 °F 71.1 °F 74% 30.28 in 10.0 mi West 4.6 mph - N/A   Clear
9:54 AM 82.9 °F 87.0 °F 70.0 °F 65% 30.28 in 10.0 mi WNW 4.6 mph - N/A   Partly Cloudy
10:54 AM 84.0 °F 88.4 °F 70.0 °F 63% 30.27 in 10.0 mi WNW 5.8 mph - N/A   Clear
11:54 AM 84.9 °F 88.8 °F 69.1 °F 59% 30.27 in 10.0 mi WSW 5.8 mph - N/A   Clear
12:54 PM 86.0 °F 90.7 °F 70.0 °F 59% 30.26 in 10.0 mi West 3.5 mph - N/A   Clear
1:54 PM 86.0 °F 91.5 °F 71.1 °F 61% 30.25 in 10.0 mi WNW 8.1 mph - N/A   Clear
2:54 PM 86.0 °F 91.5 °F 71.1 °F 61% 30.25 in 10.0 mi NW 9.2 mph - N/A   Clear
3:54 PM 84.9 °F 87.6 °F 66.9 °F 55% 30.24 in 10.0 mi WNW 10.4 mph - N/A   Clear
4:54 PM 84.9 °F 86.6 °F 64.9 °F 51% 30.23 in 10.0 mi NW 10.4 mph - N/A   Clear
5:54 PM 84.0 °F 85.4 °F 64.0 °F 51% 30.22 in 10.0 mi NW 8.1 mph - N/A   Clear
6:54 PM 82.0 °F 84.1 °F 66.0 °F 58% 30.22 in 10.0 mi WNW 5.8 mph - N/A   Clear
7:54 PM 79.0 °F - 64.9 °F 62% 30.21 in 10.0 mi WNW 3.5 mph - N/A   Clear
8:54 PM 73.9 °F - 64.9 °F 73% 30.22 in 10.0 mi Calm Calm - N/A   Clear
9:54 PM 71.1 °F - 63.0 °F 75% 30.22 in 10.0 mi Calm Calm - N/A   Clear
10:54 PM 69.1 °F - 64.9 °F 87% 30.23 in 10.0 mi Calm Calm - N/A   Clear
11:54 PM 68.0 °F - 64.9 °F 90% 30.22 in 10.0 mi Calm Calm - N/A   Clear